Flag for U.S.A. Weather past 2 weeks in Colorado Springs, Colorado, U.S.A.

Now
84 °F

Scattered clouds.


Feels Like: 81 °F
Forecast: 53 / 82 °F
Wind: 7 mph from Southeast

Location: City Of Colorado Springs Municipal Airport

Current Time: Sep 1, 2015 at 4:40:19 PM

Latest Report: Sep 1, 2015 at 2:54 PM


Visibility: 10 mi

Pressure: 29.86 "Hg (24.27 "Hg at 1831m altitude)

Humidity: 19%

Dew point: 38 °F

Location of Colorado SpringsLocation

Historic Weather in Colorado Springs — Graph

°F

Colorado Springs temperature yesterday

Maximum temperature yesterday: 81 °F (at 12:54 PM)
Minimum temperature yesterday: 61 °F (at 1:54 AM)
Average temperature yesterday: 69 °F

Past Weeks' High & Low Weather Summary

 TemperatureHumidityPressure
High91 °F (Aug 22, 2:54 PM)90% (Aug 18, 12:54 AM)30.21 "Hg (Aug 18, 12:54 AM)
Low47 °F (Aug 20, 5:54 AM)9% (Aug 21, 12:54 PM)29.68 "Hg (Aug 22, 1:54 AM)
Average69 °F44%29.95 "Hg
* Reported Aug 17 2:54 PM — Sep 1 2:54 PM, Colorado Springs, Weather by CustomWeather, © 2015

Note: Actual official high and low records may vary slightly from our data, if they occured in-between our weather recording intervals... More about our weather records

Advertising

Colorado Springs weather history for previous 24 hours

 ConditionsComfort  
Time TempWeatherWind HumidityBarometerVisibility
2:54 PM
Tue, Sep 1
84 °FScattered clouds.7 mph19%29.86 "Hg10 mi
1:54 PM84 °FScattered clouds.12 mph19%29.88 "Hg10 mi
12:54 PM82 °FScattered clouds.9 mph20%29.88 "Hg10 mi
11:54 AM82 °FScattered clouds.3 mph31%29.90 "Hg10 mi
10:54 AM75 °FScattered clouds.3 mph47%29.95 "Hg10 mi
9:54 AM69 °FScattered clouds.No wind57%29.98 "Hg10 mi
8:54 AM67 °FScattered clouds.5 mph59%29.98 "Hg10 mi
7:54 AM60 °FScattered clouds.3 mph78%30.00 "Hg10 mi
6:54 AM55 °FPassing clouds.3 mph83%29.99 "Hg10 mi
5:54 AM55 °FPassing clouds.8 mph83%29.98 "Hg10 mi
4:54 AM57 °FPassing clouds.8 mph81%30.00 "Hg10 mi
3:54 AM57 °FPassing clouds.9 mph81%29.99 "Hg10 mi
2:54 AM62 °FPassing clouds.3 mph65%29.91 "Hg10 mi
1:54 AM62 °FPassing clouds.9 mph67%29.91 "Hg10 mi
12:54 AM64 °FPassing clouds.6 mph61%29.92 "Hg10 mi
11:54 PM
Mon, Aug 31
64 °FPassing clouds.7 mph61%29.93 "Hg10 mi
10:54 PM63 °FPartly cloudy.10 mph63%29.94 "Hg10 mi
8:54 PM63 °FPassing clouds.12 mph68%29.96 "Hg10 mi
7:54 PM64 °FPartly sunny.8 mph70%29.97 "Hg10 mi
6:54 PM66 °FBroken clouds.13 mph65%29.97 "Hg10 mi
5:54 PM71 °FBroken clouds.8 mph57%29.93 "Hg10 mi
4:54 PM65 °FThunderstorms. Partly sunny.9 mph73%29.96 "Hg10 mi
Weather by CustomWeather, © 2015

See weather overviewHow to use our weather pages